This is the latest recevied weather packets stored in our database for station/object N3SBK. If no packets are shown the sender has not sent any weather packets the latest 10 day(s).
| Time | Temp. | Humidity | Pressure | Rain* | Wind** | Luminosity | Snow |
|---|---|---|---|---|---|---|---|
| 1777577668 | 6.67° C | 82% | 1003.7 hPa | 0 mm | - | 106 W/m² | - |
| 1777577366 | 6.67° C | 83% | 1003.8 hPa | 0 mm | - | 110 W/m² | - |
| 1777577061 | 6.67° C | 83% | 1003.9 hPa | 0 mm | - | 89 W/m² | - |
| 1777576759 | 6.67° C | 84% | 1003.9 hPa | 0 mm | - | 83 W/m² | - |
| 1777576457 | 6.67° C | 86% | 1003.9 hPa | 0 mm | - | 68 W/m² | - |
| 1777576155 | 6.67° C | 85% | 1003.9 hPa | 0 mm | - | 54 W/m² | - |
| 1777575849 | 6.67° C | 85% | 1003.8 hPa | 0 mm | - | 44 W/m² | - |
| 1777575547 | 6.67° C | 89% | 1003.8 hPa | 0 mm | - | 43 W/m² | - |
| 1777575242 | 6.67° C | 88% | 1003.6 hPa | 0 mm | - | 34 W/m² | - |
| 1777574939 | 6.67° C | 88% | 1003.6 hPa | 0 mm | - | 35 W/m² | - |
| 1777574635 | 6.67° C | 88% | 1003.7 hPa | 0 mm | - | 46 W/m² | - |
| 1777574332 | 6.67° C | 87% | 1003.7 hPa | 0 mm | - | 37 W/m² | - |
| 1777574032 | 6.67° C | 89% | 1003.6 hPa | 0 mm | - | 52 W/m² | - |
| 1777573727 | 6.67° C | 90% | 1003.5 hPa | 0 mm | - | 49 W/m² | - |
| 1777573424 | 6.11° C | 90% | 1003.7 hPa | 0 mm | - | 69 W/m² | - |
| 1777573119 | 6.11° C | 91% | 1003.4 hPa | 0 mm | - | 42 W/m² | - |
| 1777572816 | 6.11° C | 92% | 1003.5 hPa | 0 mm | - | 27 W/m² | - |
| 1777572512 | 6.11° C | 92% | 1003.2 hPa | 0 mm | - | 27 W/m² | - |
| 1777572208 | 6.11° C | 93% | 1003.3 hPa | 0 mm | - | 32 W/m² | - |
| 1777571903 | 6.11° C | 93% | 1003.4 hPa | 0 mm | - | 45 W/m² | - |
| 1777571598 | 6.11° C | 93% | 1003.2 hPa | 0 mm | - | 60 W/m² | - |
| 1777571296 | 6.11° C | 93% | 1003.3 hPa | 0 mm | - | 41 W/m² | - |
| 1777570992 | 6.11° C | 93% | 1003.4 hPa | 0 mm | - | 19 W/m² | - |
| 1777570688 | 6.11° C | 92% | 1003.3 hPa | 0 mm | - | 22 W/m² | - |
| 1777570385 | 6.67° C | 92% | 1003.4 hPa | 0 mm | - | 26 W/m² | - |
* Rain latest hour (hover to see other rain measurements)
** Current wind speed in m/s (hover to see current wind gust speed)